Powrót do katalogu

COSMOS 2554

AktywnyNawigacjaLEO
NORAD 52202·PAYLOAD·🇷🇺 Russia

Wystrzelony Apr 7, 2022 z Plesetsk Cosmodrome

Loading…

Następne Przeloty (najbliższe 24 godziny)

TLE

ŚwieżeSource: Space-Track

Epoka: Sep 14, 2026, 22:14 UTC

1 52202U 22036A   26257.92647137 -.00000057  00000-0  13014-4 0  9991
2 52202  67.1507  10.5833 0004932 273.9730  86.0790 13.96673652226488

Śledź COSMOS 2554 w czasie rzeczywistym z AllMySat

Download on the App Store